Starlink 31454

operational
NORAD ID: 59014 Int'l Des: 2024-036 Owner: SPXS Country: US Constellation: starlink
LEOCIRCULAR

About Starlink 31454

Description loading...

Live Position

Loading 3D Globe...

Upcoming Passes

Altitude History

Altitude vs Time

uPlot chart will show altitude changes over time

Two-Line Element Set

1 59014U 24036S 25303.28513260 .00003544 00000-0 13176-3 0 9991
2 59014 53.1598 324.1321 0001396 99.5982 260.5177 15.30193010 95352
Epoch: Oct 30, 2025 • Age: 14 hours

Current Status

Altitude 477.8 km
Velocity 7.63 km/s
Sub-Earth Point 38.12°N, 0.15°E
Launch Date Feb 23, 2024
Age 1.6 years
Type internet

Technical Details

Classification Payload
Mass 730.00 kg
Dry Mass 700.00 kg
Total Mass 730.00 kg
Length 0.30 m
Diameter 4.10 m
Span 29.00 m
Shape Box + pan
Manufacturer SPXS
Bus Type Starlink V2M
Phase Status In Orbit
Owner/State SPXS/US

Large Constellations

Loading constellations...